Wolf Point, MT

12:50 PM MDT on July 24, 2017 (GMT -0600)
Clayton

Weather History for KOLF - May, 2013

Change the Weather History Date:

Tuesday, May 7, 2013

  Actual Average Record
Temperature  
Mean Temperature 60 °F -  
Max Temperature 82 °F 67 °F 83 °F (2017)
Min Temperature 38 °F 36 °F 27 °F (1999)
Degree Days  
Heating Degree Days 5    
Cooling Degree Days 0    
Growing Degree Days 10 (Base 50)    
Moisture  
Dew Point 32 °F    
Average Humidity 38    
Maximum Humidity 65    
Minimum Humidity 14    
Precipitation  
Precipitation 0.19 in 0.04 in 0.20 in (2005)
Month to date precipitation 0.19 0.26  
Year to date precipitation 1.17 2.18  
Sea Level Pressure  
Sea Level Pressure 29.86 in    
Wind  
Wind Speed 7 mph (NE)    
Max Wind Speed 26 mph    
Max Gust Speed 34 mph    
Visibility 10 miles    
Events      
T = Trace of Precipitation, MM = Missing Value Source: NWS Daily Summary

Daily Weather History Graph

Daily Weather History Graph

Search for Another Location

Airport or City:

Trip Planner

Search our weather history database for the weather conditions in past years. The results will help you decide how hot, cold, wet, or windy it might be!

Date:

Astronomy

May. 07, 2013 Rise Set
Actual Time 5:33 AM MDT 8:24 PM MDT
Civil Twilight 4:58 AM MDT 9:00 PM MDT
Nautical Twilight 4:12 AM MDT 9:46 PM MDT
Astronomical Twilight 3:17 AM MDT 10:42 PM MDT
Moon 4:19 AM MDT (5/7) 6:19 PM MDT (5/7)
Length of Visible Light 16h 02m
Length of Day
14h 50m
Waning Crescent, 5% of the Moon is Illuminated
May 7
Waning Crescent
May 9
New
May 17
First Quarter
May 24
Full
May 31
Last Quarter

Hourly Weather History & Observations

Time (MDT) Temp. Windchill Dew Point Humidity Pressure Visibility Wind Dir Wind Speed Gust Speed Precip Events Conditions
12:53 AM 46.0 °F 41.9 °F 30.9 °F 56% 29.92 in 10.0 mi NE 8.1 mph - N/A   Clear
1:53 AM 43.0 °F 40.3 °F 30.9 °F 62% 29.91 in 10.0 mi NE 4.6 mph - N/A   Clear
2:53 AM 43.0 °F 39.5 °F 30.0 °F 60% 29.90 in 10.0 mi NE 5.8 mph - N/A   Clear
3:53 AM 39.9 °F 35.8 °F 28.9 °F 65% 29.90 in 10.0 mi NE 5.8 mph - N/A   Clear
4:53 AM 39.9 °F 36.7 °F 28.0 °F 63% 29.90 in 10.0 mi NE 4.6 mph - N/A   Clear
5:53 AM 39.0 °F 35.7 °F 28.0 °F 65% 29.89 in 10.0 mi ENE 4.6 mph - N/A   Clear
6:53 AM 46.0 °F - 32.0 °F 58% 29.89 in 10.0 mi Calm Calm - N/A   Clear
7:53 AM 53.1 °F - 32.0 °F 45% 29.88 in 10.0 mi East 8.1 mph - N/A   Clear
8:53 AM 59.0 °F - 28.9 °F 32% 29.88 in 10.0 mi East 6.9 mph - N/A   Clear
9:53 AM 66.0 °F - 32.0 °F 28% 29.86 in 10.0 mi East 5.8 mph - N/A   Clear
10:53 AM 73.0 °F - 32.0 °F 22% 29.84 in 10.0 mi Calm Calm - N/A   Unknown
11:53 AM - - - N/A% 29.84 in - Calm Calm - N/A   Clear
12:53 PM - - - N/A% 29.83 in - NNW 8.1 mph - 0.19 in   Clear
1:53 PM 79.0 °F - 28.0 °F 15% 29.82 in 10.0 mi North - - N/A   Clear
2:53 PM 79.0 °F - 26.1 °F 14% 29.81 in 10.0 mi Variable 3.5 mph - N/A   Clear
3:53 PM 81.0 °F - 28.0 °F 14% 29.81 in 10.0 mi North 9.2 mph - N/A   Clear
4:53 PM 82.0 °F - 28.9 °F 14% 29.81 in 10.0 mi NE 8.1 mph - N/A   Clear
5:53 PM 80.1 °F - 28.0 °F 15% 29.81 in 10.0 mi NE 9.2 mph - N/A   Clear
6:53 PM 78.1 °F - 28.9 °F 17% 29.81 in 10.0 mi East 5.8 mph - N/A   Clear
7:53 PM 72.0 °F - 33.1 °F 24% 29.82 in 10.0 mi East 5.8 mph - N/A   Clear
8:43 PM 69.8 °F - 39.2 °F 33% 29.85 in 10.0 mi NNE 10.4 mph 29.9 mph N/A   Clear
8:53 PM 69.1 °F - 37.9 °F 32% 29.85 in 10.0 mi North 21.9 mph 27.6 mph N/A   Clear
9:53 PM 63.0 °F - 41.0 °F 45% 29.90 in 10.0 mi NNE 24.2 mph 31.1 mph N/A   Clear
10:53 PM 59.0 °F - 41.0 °F 51% 29.91 in 10.0 mi NNE 26.5 mph 34.5 mph N/A   Clear
11:53 PM 55.9 °F - 39.0 °F 53% 29.95 in 10.0 mi NNE 24.2 mph 34.5 mph N/A   Clear